| time (UTC) | temp F | wind direction | speed knots | gust knots | rain 1hr in | rain 24hr in | rain mn in | humidity % | barometer mb |
| 20260504081538 | 45 | 0 | 0.0 | 1.7 | 0.00 | 0.00 | 0.00 | 70 | 1010.4 |
| 20260504044542 | 44 | 0 | 0.0 | 0.9 | 0.00 | 0.00 | 0.00 | 73 | 1011.3 |
| 20260504043048 | 44 | 0 | 0.0 | 0.9 | 0.00 | 0.00 | 0.00 | 74 | 1011.7 |
| 20260504041542 | 43 | 0 | 0.0 | 0.9 | 0.00 | 0.00 | 0.00 | 73 | 1011.6 |
| 20260504040042 | 43 | 250 | 0.0 | 1.7 | 0.00 | 0.00 | 0.00 | 73 | 1011.4 |
| 20260504034544 | 42 | 0 | 0.0 | 0.0 | 0.00 | 0.00 | 0.00 | 72 | 1011.2 |
| 20260504033038 | 41 | 0 | 0.0 | 0.9 | 0.00 | 0.00 | 0.00 | 72 | 1011.0 |
| 20260504031541 | 41 | 0 | 0.0 | 1.7 | 0.00 | 0.00 | 0.00 | 72 | 1011.1 |
| 20260504030043 | 41 | 0 | 0.0 | 1.7 | 0.00 | 0.00 | 0.00 | 70 | 1011.1 |
| 20260504024546 | 41 | 0 | 0.0 | 0.9 | 0.00 | 0.00 | 0.00 | 69 | 1010.9 |
| 20260504023040 | 42 | 0 | 0.0 | 1.7 | 0.00 | 0.00 | 0.00 | 67 | 1010.9 |
| 20260504021540 | 43 | 0 | 0.0 | 0.9 | 0.00 | 0.00 | 0.00 | 65 | 1011.1 |
| 20260504020041 | 44 | 0 | 0.0 | 0.9 | 0.00 | 0.00 | 0.00 | 63 | 1011.2 |
| 20260504014542 | 45 | 250 | 0.0 | 1.7 | 0.00 | 0.00 | 0.00 | 58 | 1011.1 |
| 20260504013054 | 47 | 0 | 0.0 | 0.0 | 0.00 | 0.00 | 0.00 | 54 | 1011.1 |
| 20260504011539 | 48 | 0 | 0.0 | 0.0 | 0.00 | 0.00 | 0.00 | 49 | 1010.9 |
| 20260504010041 | 50 | 0 | 0.0 | 1.7 | 0.00 | 0.00 | 0.00 | 49 | 1010.7 |
| 20260504004538 | 51 | 0 | 0.0 | 1.7 | 0.00 | 0.00 | 0.00 | 45 | 1010.6 |
| 20260504003037 | 52 | 0 | 0.0 | 3.5 | 0.00 | 0.00 | 0.00 | 43 | 1010.3 |
| 20260504001546 | 52 | 212 | 0.9 | 4.3 | 0.00 | 0.00 | 0.00 | 42 | 1010.3 |
| 20260504000041 | 52 | 208 | 0.9 | 3.5 | 0.00 | 0.00 | 0.00 | 41 | 1010.3 |
| 20260503234539 | 53 | 248 | 1.7 | 6.1 | 0.00 | 0.00 | 0.00 | 39 | 1010.0 |
| 20260503233037 | 53 | 261 | 1.7 | 5.2 | 0.00 | 0.00 | 0.00 | 38 | 1009.8 |
| 20260503231537 | 54 | 257 | 0.9 | 5.2 | 0.00 | 0.00 | 0.00 | 36 | 1009.4 |
| 20260503230041 | 55 | 240 | 1.7 | 6.1 | 0.00 | 0.00 | 0.00 | 35 | 1009.3 |
| 20260503224542 | 55 | 234 | 1.7 | 6.1 | 0.00 | 0.00 | 0.00 | 35 | 1009.0 |
| 20260503223135 | 55 | 260 | 3.5 | 7.8 | 0.00 | 0.00 | 0.00 | 33 | 1009.2 |
| 20260503221542 | 55 | 227 | 3.5 | 7.0 | 0.00 | 0.00 | 0.00 | 31 | 1009.2 |
| 20260503220040 | 55 | 273 | 3.5 | 7.8 | 0.00 | 0.00 | 0.00 | 30 | 1009.2 |
| 20260503214541 | 55 | 246 | 2.6 | 7.0 | 0.00 | 0.00 | 0.00 | 32 | 1009.3 |
| 20260503213043 | 55 | 165 | 2.6 | 6.1 | 0.00 | 0.00 | 0.00 | 30 | 1009.2 |
| 20260503211537 | 56 | 265 | 1.7 | 10.4 | 0.00 | 0.00 | 0.00 | 34 | 1009.2 |
| 20260503210042 | 56 | 245 | 2.6 | 7.8 | 0.00 | 0.00 | 0.00 | 32 | 1008.9 |
| 20260503204539 | 55 | 290 | 1.7 | 9.6 | 0.00 | 0.00 | 0.00 | 37 | 1009.3 |
| 20260503203041 | 54 | 265 | 1.7 | 6.1 | 0.00 | 0.00 | 0.00 | 41 | 1009.4 |
| 20260503201539 | 54 | 255 | 1.7 | 5.2 | 0.00 | 0.00 | 0.00 | 39 | 1009.6 |
| 20260503200038 | 53 | 139 | 1.7 | 7.8 | 0.00 | 0.00 | 0.00 | 40 | 1009.7 |
| 20260503194542 | 53 | 283 | 1.7 | 7.0 | 0.00 | 0.00 | 0.00 | 41 | 1009.9 |
| 20260503193048 | 52 | 265 | 1.7 | 8.7 | 0.00 | 0.00 | 0.00 | 43 | 1010.2 |
| 20260503191603 | 52 | 194 | 1.7 | 9.6 | 0.00 | 0.00 | 0.00 | 42 | 1010.1 |
| 20260503190037 | 50 | 221 | 2.6 | 7.0 | 0.00 | 0.00 | 0.00 | 44 | 1010.4 |
| 20260503184538 | 50 | 269 | 2.6 | 9.6 | 0.00 | 0.00 | 0.00 | 44 | 1010.7 |
| 20260503183038 | 50 | 223 | 2.6 | 7.8 | 0.00 | 0.00 | 0.00 | 45 | 1010.7 |
| 20260503181549 | 50 | 88 | 2.6 | 7.0 | 0.00 | 0.00 | 0.00 | 47 | 1010.7 |
| 20260503180054 | 49 | 247 | 3.5 | 9.6 | 0.00 | 0.00 | 0.00 | 47 | 1010.5 |
| 20260503174546 | 49 | 249 | 2.6 | 7.0 | 0.00 | 0.00 | 0.00 | 48 | 1010.7 |
| 20260503173038 | 49 | 238 | 2.6 | 6.1 | 0.00 | 0.00 | 0.00 | 47 | 1010.9 |
| 20260503171539 | 49 | 236 | 2.6 | 7.0 | 0.00 | 0.00 | 0.00 | 46 | 1010.8 |